This demonstration page uses our WeatherBlox Daily Observations layout. Learn more.

38.88101, -77.10428

Hourly Observations for September 22, 2020

Temp ( °F °C ) Dew Point ( °F °C ) Humidity (%) Winds ( mph kmh ) Pressure ( in mb ) Visibility ( mi km ) Precip ( " mm )
12:52 am 00:52 Clear 51 10.6 44 6.7 77 77 NNW 5 7 30.36 1028 10 16.0934 0 0
1:52 am 01:52 Clear 51 10.6 44 6.7 77 77 N 5 7 30.35 1028 10 16.0934 0 0
2:52 am 02:52 Clear 51 10.6 43 6.1 74 74 N 3 6 30.33 1027 10 16.0934 0 0
3:52 am 03:52 Clear 49 9.4 45 7.2 86 86 N 5 7 30.32 1027 10 16.0934 0 0
4:52 am 04:52 Clear 48 8.9 43 6.1 83 83 N 6 9 30.3 1026 10 16.0934 0 0
5:52 am 05:52 Clear 51 10.6 41 5 69 69 Calm 30.3 1026 10 16.0934 0 0
6:52 am 06:52 Mostly Clear 49 9.4 41 5 74 74 Calm 30.29 1026 10 16.0934 0 0
7:52 am 07:52 Sunny 50 10 42 5.6 74 74 N 6 9 30.28 1025 10 16.0934 0 0
8:52 am 08:52 Sunny 55 12.8 44 6.7 67 67 N 7 11 30.28 1025 10 16.0934 0 0
9:52 am 09:52 Sunny 58 14.4 44 6.7 60 60 N 10 17 30.27 1025 10 16.0934 0 0
10:52 am 10:52 Sunny 63 17.2 45 7.2 52 52 NNW 7 11 30.25 1024 10 16.0934 0 0
11:52 am 11:52 Sunny 67 19.4 40 4.4 37 37 WNW 7 11 30.23 1024 10 16.0934 0 0
12:52 pm 12:52 Sunny 69 20.6 41 5 36 36 W 7 11 30.19 1022 10 16.0934 0 0
1:52 pm 13:52 Sunny 70 21.1 40 4.4 34 34 VRB 7 11 30.14 1021 10 16.0934 0 0
2:52 pm 14:52 Partly Cloudy 71 21.7 39 3.9 31 31 W 9 15 30.1 1019 10 16.0934 0 0
3:52 pm 15:52 Partly Cloudy 72 22.2 42 5.6 34 34 W 10 17 30.06 1018 10 16.0934 0 0
4:52 pm 16:52 Mostly Sunny 71 21.7 42 5.6 35 35 WNW 8 13 30.04 1017 10 16.0934 0 0
5:52 pm 17:52 Mostly Sunny 69 20.6 44 6.7 41 41 NNW 8 13 30.03 1017 10 16.0934 0 0
6:52 pm 18:52 Partly Cloudy 68 20 42 5.6 39 39 NNW 3 6 30.03 1017 10 16.0934 0 0
7:52 pm 19:52 Clear 66 18.9 46 7.8 49 49 WSW 3 6 30.03 1017 10 16.0934 0 0
8:52 pm 20:52 Clear 61 16.1 48 8.9 63 63 WSW 7 11 30.03 1017 10 16.0934 0 0
9:52 pm 21:52 Clear 61 16.1 47 8.3 60 60 W 7 11 30.02 1017 10 16.0934 0 0
10:52 pm 22:52 Mostly Cloudy 62 16.7 46 7.8 56 56 WNW 7 11 30.01 1016 10 16.0934 0 0
11:52 pm 23:52 Mostly Cloudy 63 17.2 44 6.7 50 50 NNE 3 6 30.01 1016 10 16.0934 0 0

Powered by AerisWeather